Starlink 4536

operational
NORAD ID: 53783 Int'l Des: 2022-111 Owner: SPXS Country: US Constellation: starlink
LEOCIRCULAR

关于 Starlink 4536

正在加载描述...

实时位置

正在加载3D地球...

即将过境

高度历史

Altitude vs Time

uPlot chart will show altitude changes over time

两行轨道根数

1 53783U 22111L 25299.33058397 .00001335 00000-0 10195-3 0 9999
2 53783 53.2165 157.2001 0001383 82.3843 277.7307 15.08848531173411
Epoch: Oct 26, 2025 • Age: 11 hours

当前状态

高度 557.1 km
速度 7.58 km/s
星下点 -48.06°S, 77.17°E
发射日期 Sep 11, 2022
运行时间 3.1 years
类型 internet

技术详情

分类 Payload
质量 305.00 kg
干质量 290.00 kg
总质量 305.00 kg
长度 0.20 m
直径 2.80 m
跨度 9.00 m
形状 Box + pan
制造商 SPXS
平台类型 Starlink
阶段状态 In Orbit
所有者/国家 SPXS/US

大型星座

Loading constellations...